Weather History for Bemidji, MN

Change the Weather History Date:

Monday, August 11, 2014

  Actual Average Record
Temperature  
Mean Temperature 62 °F -  
Max Temperature 72 °F 79 °F 91 °F (1958)
Min Temperature 51 °F 52 °F 39 °F (2012)
Degree Days  
Heating Degree Days 4    
Growing Degree Days 12 (Base 50)    
Moisture  
Dew Point 53 °F    
Average Humidity 71    
Maximum Humidity 94    
Minimum Humidity 42    
Precipitation  
Precipitation 0.00 in - - ()
Sea Level Pressure  
Sea Level Pressure 30.12 in    
Wind  
Wind Speed 8 mph (NNW)    
Max Wind Speed 16 mph    
Max Gust Speed 23 mph    
Visibility 10 miles    
Events      
Averages and records for this station are not official NWS values.
T = Trace of Precipitation, MM = Missing Value Source: NWS Daily Summary

Daily Weather History Graph

Daily Weather History Graph

Search for Another Location

Airport:

Trip Planner

Search our weather history database for the weather conditions in past years. The results will help you decide how hot, cold, wet, or windy it might be!

Date:

Astronomy

Aug. 11, 2014 Rise Set
Actual Time 6:10 AM CDT 8:38 PM CDT
Civil Twilight 5:36 AM CDT 9:12 PM CDT
Nautical Twilight 4:52 AM CDT 9:55 PM CDT
Astronomical Twilight 4:03 AM CDT 10:44 PM CDT
Moon 8:56 PM CDT (8/11) 7:25 AM CDT (8/11)
Length of Visible Light 15h 36m
Length of Day
14h 27m
Full, 99% of the Moon is Illuminated
Aug 11
Full
Aug 17
Last Quarter
Aug 25
New
Sep 2
First Quarter
Sep 8
Full

Hourly Weather History & Observations

Time (CDT) Temp. Dew Point Humidity Pressure Visibility Wind Dir Wind Speed Gust Speed Precip Events Conditions
12:10 AM 61.0 °F 55.4 °F 82% 30.09 in 10.0 mi NW 5.8 mph - N/A   Mostly Cloudy
12:30 AM 60.8 °F 55.2 °F 82% 30.09 in 10.0 mi NNW 5.8 mph - N/A   Scattered Clouds
12:49 AM 59.4 °F 55.2 °F 86% 30.09 in 10.0 mi NW 5.8 mph - N/A   Clear
1:10 AM 59.2 °F 54.9 °F 86% 30.09 in 10.0 mi NW 6.9 mph - N/A   Clear
1:30 AM 59.2 °F 54.7 °F 85% 30.09 in 10.0 mi NW 6.9 mph - N/A   Clear
1:49 AM 58.6 °F 54.7 °F 87% 30.08 in 10.0 mi NNW 5.8 mph - N/A   Scattered Clouds
2:10 AM 58.8 °F 54.5 °F 86% 30.08 in 10.0 mi NW 6.9 mph - N/A   Clear
2:29 AM 58.1 °F 54.7 °F 88% 30.08 in 10.0 mi NW 6.9 mph - N/A   Clear
2:50 AM 58.5 °F 54.7 °F 87% 30.07 in 10.0 mi NW 6.9 mph - N/A   Clear
3:10 AM 57.9 °F 54.7 °F 89% 30.09 in 10.0 mi NW 6.9 mph - N/A   Scattered Clouds
3:30 AM 58.1 °F 55.0 °F 90% 30.09 in 10.0 mi NW 5.8 mph - N/A   Scattered Clouds
3:49 AM 58.5 °F 55.4 °F 90% 30.09 in 10.0 mi NW 5.8 mph - N/A   Mostly Cloudy
4:10 AM 59.0 °F 55.6 °F 88% 30.09 in 10.0 mi NW 5.8 mph - N/A   Overcast
4:30 AM 59.4 °F 55.6 °F 87% 30.10 in 10.0 mi NW 8.1 mph - N/A   Overcast
4:50 AM 59.7 °F 55.6 °F 86% 30.10 in 10.0 mi NNW 6.9 mph - N/A   Mostly Cloudy
5:10 AM 58.8 °F 55.6 °F 89% 30.10 in 10.0 mi NNW 5.8 mph - N/A   Scattered Clouds
5:30 AM 59.0 °F 55.6 °F 88% 30.10 in 10.0 mi NNW 4.6 mph - N/A   Scattered Clouds
5:49 AM 59.0 °F 55.6 °F 88% 30.10 in 10.0 mi NNW 5.8 mph - N/A   Scattered Clouds
6:10 AM 58.6 °F 55.4 °F 89% 30.11 in 10.0 mi NW 4.6 mph - N/A   Scattered Clouds
6:30 AM 57.2 °F 54.9 °F 92% 30.11 in 10.0 mi NW 4.6 mph - N/A   Scattered Clouds
7:10 AM 57.4 °F 55.4 °F 93% 30.12 in 10.0 mi NW 5.8 mph - N/A   Clear
7:30 AM 57.9 °F 55.9 °F 93% 30.12 in 10.0 mi NW 5.8 mph - N/A   Clear
7:49 AM 60.1 °F 56.1 °F 87% 30.13 in 10.0 mi NW 5.8 mph - N/A   Clear
8:10 AM 61.5 °F 55.9 °F 82% 30.13 in 10.0 mi NNW 8.1 mph - N/A   Clear
8:30 AM 62.6 °F 55.4 °F 77% 30.13 in 10.0 mi NNW 9.2 mph - N/A   Clear
8:49 AM 63.5 °F 55.8 °F 76% 30.14 in 10.0 mi NNW 11.5 mph - N/A   Clear
9:10 AM 63.9 °F 55.4 °F 74% 30.14 in 10.0 mi North 11.5 mph - N/A   Clear
9:30 AM 63.3 °F 54.9 °F 74% 30.14 in 10.0 mi North 9.2 mph - N/A   Clear
9:49 AM 65.1 °F 55.0 °F 70% 30.14 in 10.0 mi NNW 12.7 mph - N/A   Mostly Cloudy
10:10 AM 66.0 °F 52.9 °F 63% 30.14 in 10.0 mi North 12.7 mph - N/A   Scattered Clouds
10:30 AM 65.3 °F 52.9 °F 64% 30.14 in 10.0 mi North 10.4 mph - N/A   Mostly Cloudy
10:49 AM 67.3 °F 52.9 °F 60% 30.15 in 10.0 mi NNW 10.4 mph 19.6 mph N/A   Mostly Cloudy
11:10 AM 64.9 °F 51.3 °F 61% 30.15 in 10.0 mi North 11.5 mph 16.1 mph N/A   Mostly Cloudy
11:30 AM 65.8 °F 52.5 °F 62% 30.15 in 10.0 mi North 11.5 mph 20.7 mph N/A   Mostly Cloudy
11:49 AM 68.0 °F 52.2 °F 57% 30.14 in 10.0 mi North 16.1 mph 21.9 mph N/A   Scattered Clouds
12:10 PM 68.0 °F 51.4 °F 55% 30.15 in 10.0 mi North 10.4 mph 18.4 mph N/A   Mostly Cloudy
12:30 PM 68.5 °F 51.8 °F 55% 30.14 in 10.0 mi North 11.5 mph 19.6 mph N/A   Scattered Clouds
12:49 PM 69.4 °F 51.8 °F 53% 30.14 in 10.0 mi North 9.2 mph 17.3 mph N/A   Scattered Clouds
1:10 PM 69.3 °F 50.9 °F 52% 30.14 in 10.0 mi North 16.1 mph 23.0 mph N/A   Mostly Cloudy
1:30 PM 70.9 °F 52.9 °F 53% 30.14 in 10.0 mi NNW 11.5 mph 17.3 mph N/A   Scattered Clouds
1:50 PM 69.1 °F 51.3 °F 53% 30.14 in 10.0 mi North 11.5 mph 16.1 mph N/A   Mostly Cloudy
2:10 PM 68.9 °F 50.2 °F 51% 30.14 in 10.0 mi North 10.4 mph 18.4 mph N/A   Mostly Cloudy
2:30 PM 70.2 °F 50.9 °F 50% 30.14 in 10.0 mi North 10.4 mph 16.1 mph N/A   Scattered Clouds
2:49 PM 71.1 °F 49.6 °F 47% 30.14 in 10.0 mi North 15.0 mph 18.4 mph N/A   Scattered Clouds
3:10 PM 72.5 °F 50.5 °F 46% 30.14 in 10.0 mi North 15.0 mph 21.9 mph N/A   Mostly Cloudy
3:30 PM 70.0 °F 50.2 °F 49% 30.14 in 10.0 mi North 11.5 mph 19.6 mph N/A   Scattered Clouds
3:49 PM 72.5 °F 48.7 °F 43% 30.13 in 10.0 mi NNW 12.7 mph 18.4 mph N/A   Scattered Clouds
4:10 PM 69.4 °F 48.9 °F 48% 30.13 in 10.0 mi North 9.2 mph - N/A   Scattered Clouds
4:30 PM 72.0 °F 50.0 °F 46% 30.13 in 10.0 mi NNW 15.0 mph 19.6 mph N/A   Scattered Clouds
4:50 PM 72.1 °F 49.1 °F 44% 30.13 in 10.0 mi North 8.1 mph 19.6 mph N/A   Scattered Clouds
5:30 PM 71.2 °F 47.3 °F 42% 30.13 in 10.0 mi North 10.4 mph - N/A   Clear
5:49 PM 71.1 °F 48.7 °F 45% 30.13 in 10.0 mi North 11.5 mph 18.4 mph N/A   Clear
6:10 PM 70.7 °F 49.1 °F 46% 30.13 in 10.0 mi North 12.7 mph - N/A   Clear
6:30 PM 69.1 °F 49.3 °F 49% 30.13 in 10.0 mi NNW 8.1 mph - N/A   Clear
6:49 PM 69.8 °F 50.2 °F 50% 30.13 in 10.0 mi North 10.4 mph - N/A   Clear
7:10 PM 68.9 °F 50.7 °F 52% 30.13 in 10.0 mi North 6.9 mph - N/A   Clear
7:30 PM 68.0 °F 51.1 °F 55% 30.12 in 10.0 mi North 4.6 mph - N/A   Clear
7:49 PM 65.5 °F 51.1 °F 60% 30.12 in 10.0 mi North 3.5 mph - N/A   Clear
8:08 PM 64.9 °F 51.1 °F 61% 30.12 in 10.0 mi NNW 3.5 mph - N/A   Clear
8:30 PM 63.9 °F 51.1 °F 63% 30.13 in 10.0 mi Calm Calm - N/A   Clear
8:50 PM 61.5 °F 51.8 °F 70% 30.13 in 10.0 mi NW 3.5 mph - N/A   Clear
9:10 PM 58.3 °F 51.8 °F 79% 30.14 in 10.0 mi NW 4.6 mph - N/A   Clear
9:30 PM 57.2 °F 51.4 °F 81% 30.14 in 10.0 mi NW 3.5 mph - N/A   Clear
9:49 PM 55.8 °F 51.1 °F 84% 30.14 in 10.0 mi NW 3.5 mph - N/A   Clear
10:10 PM 53.8 °F 50.7 °F 89% 30.14 in 10.0 mi WNW 4.6 mph - N/A   Clear
10:30 PM 53.6 °F 50.4 °F 89% 30.13 in 10.0 mi WNW 4.6 mph - N/A   Clear
10:50 PM 52.5 °F 50.2 °F 92% 30.13 in 10.0 mi WNW 4.6 mph - N/A   Clear
11:10 PM 51.6 °F 49.3 °F 92% 30.13 in 10.0 mi West 3.5 mph - N/A   Clear
11:30 PM 52.0 °F 50.2 °F 94% 30.13 in 10.0 mi WNW 3.5 mph - N/A   Clear
11:50 PM 51.8 °F 49.8 °F 93% 30.13 in 10.0 mi WNW 3.5 mph - N/A   Clear